[[{"header":{"parameterUnit":"m.s-1","parameterCategory":1,"la1":30.2991,"la2":30.254,"lo1":-89.0895,"lo2":-89.0444,"dx":0.0017,"dy":0.0017,"nx":28,"ny":28,"refTime":"2023-01-12T15:00:00:Z","depth":0,"parameterNumber":2,"parameterNumberName":"U-component_of_WINDS"},"data":[0,0,0,0,0,0,0,0,0,0,0,0,0,0,0,0,0,0,0,0,0,0,0,0,0,0,0,0,0,0,0,0,0,0,0,0,0,0,0,0,0,0,0,0,0,0,0,0,0,0,0,0,0,0,0,0,0,0,4.5349,4.5349,0,4.5385,4.5385,4.5386,4.5332,4.533,4.5328,4.5326,4.5362,4.5365,4.5367,0,0,0,0,0,0,0,0,0,0,0,0,0,4.5232,4.5235,4.5349,4.5349,4.5349,4.5385,4.5385,4.5386,4.5332,4.533,4.5328,4.5326,4.5361,4.5364,4.5368,0,0,0,0,0,0,0,0,0,0,0,0,0,4.5277,4.5236,4.5348,4.5327,4.5325,4.5385,4.5385,4.5386,4.5333,4.533,4.5327,4.5324,4.536,4.5364,4.5368,4.545,0,0,4.538,4.5382,0,0,0,0,0,0,0,0,4.5275,4.5281,4.533,4.5329,4.5327,4.5351,4.5357,4.5407,4.5333,4.533,4.5326,4.5323,4.5361,4.5364,4.5377,4.5451,4.5453,4.5381,4.5383,4.5385,4.5386,0,0,0,0,0,0,0,4.5272,4.528,4.5363,4.533,4.5329,4.5316,4.5319,4.5367,4.5361,4.533,4.5326,4.5331,4.5359,4.5374,4.5378,4.5453,4.5381,4.5384,4.5387,4.5388,4.5598,4.5601,0,0,0,0,0,0,4.5271,4.5277,4.5362,4.5364,4.5293,4.532,4.5324,4.5346,4.536,4.5359,4.5334,4.5329,4.5368,4.5373,4.5379,4.5476,4.5385,4.5389,4.5391,4.5595,4.5599,4.5602,0,0,0,0,0,0,4.5269,4.5279,4.536,4.532,4.5329,4.5325,4.5351,4.5348,4.5363,4.5363,4.5361,4.535,4.5366,4.5373,4.5433,4.5477,4.5391,4.5394,4.5591,4.5596,4.5601,4.5672,0,0,0,0,0,0,4.5266,4.5279,4.531,4.5321,4.5331,4.5414,4.5353,4.5351,4.537,4.5364,4.5377,4.5377,4.5364,4.5427,4.5437,4.5481,4.5397,4.5587,4.5594,4.5599,4.5665,4.5678,4.5689,0,0,0,0,0,4.5262,4.5327,4.5311,4.5322,4.537,4.5417,4.5422,4.5407,4.5374,4.5405,4.5405,4.5376,4.5471,4.5434,4.5444,4.549,4.5585,4.5592,4.5599,4.566,4.5676,4.5689,0,0,0,0,0,0,4.532,4.5328,4.5311,4.5382,4.5399,4.5407,4.5446,4.5424,4.5451,4.5444,4.5424,4.5427,4.5492,4.5497,4.5456,4.5571,4.5522,4.5532,4.5565,4.558,4.5592,4.5589,4.5401,0,0,0,0,0,4.5341,4.5379,4.5384,4.5446,4.5456,4.545,4.5469,4.5457,4.5473,4.548,4.5485,4.5502,4.5536,4.5558,4.5589,4.5666,4.5669,4.5703,4.5715,4.5725,4.5733,4.5776,4.5791,4.5626,4.5626,4.5625,0,0,4.5385,4.5394,4.5419,4.5458,4.547,4.5509,4.5456,4.5499,4.5529,4.5486,4.5544,4.5548,4.5566,4.5636,4.5666,4.5642,4.578,4.5734,4.5742,4.5745,4.5785,4.58,4.5814,4.563,4.5629,4.5629,0,0,4.5485,4.5496,4.5549,4.5563,4.5582,4.5578,4.5592,4.5604,4.5606,4.5663,4.5633,4.5667,4.5725,4.574,4.5755,4.5864,4.5839,4.5875,4.5937,4.5979,4.5992,4.6003,4.6043,4.6057,4.5883,4.5883,4.5883,0,4.5537,4.5595,4.5579,4.5626,4.5645,4.561,4.5665,4.5678,4.5707,4.572,4.5693,4.5767,4.5776,4.5849,4.5876,4.5889,4.5904,4.5872,4.5991,4.6002,4.6013,4.605,4.6065,4.5887,4.5887,4.5887,4.5886,0,4.5658,4.57,4.5741,4.5771,4.5794,4.5844,4.5836,4.5862,4.5848,4.5847,4.5907,4.5918,4.5951,4.5968,4.5954,4.604,4.6024,4.5994,4.5945,4.6033,4.6068,4.6082,4.5894,4.5892,4.5891,4.589,0,0,4.5794,4.5816,4.5832,4.5846,4.5866,4.5897,4.5947,4.598,4.6003,4.6024,4.6066,4.6117,4.6091,4.6108,4.6096,4.6133,4.622,4.6098,4.6098,4.6121,4.6316,4.6338,4.6355,4.6203,4.6206,4.6208,4.6315,0,4.5894,4.598,4.5969,4.6051,4.609,4.6059,4.6102,4.612,4.6121,4.6154,4.6155,4.6192,4.6154,4.6164,4.6199,4.6201,4.6258,4.6194,4.6242,4.6244,4.6238,4.6373,4.6396,4.6496,4.6328,4.633,4.6332,0,4.6022,4.605,4.6137,4.6153,4.6169,4.6208,4.6239,4.6271,4.629,4.6289,4.631,4.6291,4.6342,4.6292,4.6361,4.6318,4.6337,4.6341,4.6345,4.6348,4.6293,4.638,4.6527,4.6542,4.6353,4.6352,4.635,0,4.6113,4.6172,4.6232,4.6245,4.6265,4.6293,4.6303,4.632,4.6342,4.6369,4.6383,4.6415,4.6433,4.6459,4.6451,4.6415,4.6522,4.6471,4.6522,4.6523,4.6545,4.6544,4.6698,4.6558,4.6558,4.6558,4.6558,0,4.6226,4.6281,4.6274,4.631,4.6371,4.6358,4.6418,4.6424,4.644,4.6478,4.6453,4.6489,4.6475,4.6511,4.6505,4.6564,4.6572,4.6572,4.657,4.6574,4.6574,4.6586,4.6579,4.6562,4.6561,4.656,4.656,0,4.6337,4.6335,4.6398,4.6413,4.6418,4.6462,4.6475,4.651,4.651,4.6558,4.6569,4.6569,4.661,4.6604,4.6649,4.6645,4.6719,4.6708,4.6712,4.671,4.6761,4.6757,4.6927,4.695,4.6796,4.6798,4.6799,0,4.641,4.6451,4.6471,4.6495,4.6507,4.6546,4.6569,4.6558,4.6583,4.661,4.6642,4.668,4.671,4.6777,4.6781,4.6816,4.6806,4.6864,4.6811,4.6815,4.6807,4.6805,4.6809,4.6874,4.6875,4.6877,4.6878,0,4.6538,4.6536,4.6569,4.6604,4.6632,4.6658,4.6682,4.6703,4.6694,4.6724,4.6765,4.6789,4.6836,4.6875,4.6908,4.6918,4.6897,4.6895,4.6908,4.6913,4.6914,4.6915,4.6741,4.6891,4.6889,4.6888,4.6888,4.6887,4.6632,4.6668,4.6689,4.6728,4.6745,4.6768,4.6803,4.6808,4.6843,4.6881,4.6873,4.692,4.6941,4.6983,4.6997,4.7034,4.7013,4.7033,4.7038,4.7043,4.7049,4.6909,4.704,4.704,4.7039,4.7039,4.7039,0,4.676,4.6772,4.6809,4.6843,4.6875,4.6853,4.6879,4.6906,4.6949,4.697,4.7001,4.705,4.7088,4.7097,4.7134,4.7162,4.7153,4.7172,4.7169,4.7172,4.7065,4.705,4.7178,4.7178,4.7178,4.7178,4.7178,4.7178,4.683,4.6891,4.6891,4.696,4.6972,4.7019,4.7035,4.7057,4.7074,4.713,4.7163,4.7168,4.7184,4.7223,4.7257,4.7259,4.7274,4.7296,4.7294,4.7194,4.718,4.7166,4.7152,4.7299,4.73,4.7398,4.7399,4.7399]},{"header":{"parameterUnit":"m.s-1","parameterCategory":1,"la1":30.2991,"la2":30.254,"lo1":-89.0895,"lo2":-89.0444,"dx":0.0017,"dy":0.0017,"nx":28,"ny":28,"refTime":"2023-01-12T15:00:00:Z","depth":0,"parameterNumber":3,"parameterNumberName":"V-component_of_WINDS"},"data":[0,0,0,0,0,0,0,0,0,0,0,0,0,0,0,0,0,0,0,0,0,0,0,0,0,0,0,0,0,0,0,0,0,0,0,0,0,0,0,0,0,0,0,0,0,0,0,0,0,0,0,0,0,0,0,0,0,0,-7.1807,-7.1809,0,-7.1957,-7.1958,-7.196,-7.192,-7.1917,-7.1914,-7.1911,-7.2062,-7.2068,-7.2075,0,0,0,0,0,0,0,0,0,0,0,0,0,-7.1486,-7.1492,-7.1807,-7.1809,-7.1811,-7.1956,-7.1958,-7.196,-7.192,-7.1917,-7.1913,-7.191,-7.206,-7.2068,-7.2076,0,0,0,0,0,0,0,0,0,0,0,0,0,-7.1629,-7.1494,-7.1807,-7.1808,-7.181,-7.1956,-7.1958,-7.1961,-7.1921,-7.1917,-7.1912,-7.1908,-7.2057,-7.2067,-7.2077,-7.223,0,0,-7.2108,-7.2113,0,0,0,0,0,0,0,0,-7.1621,-7.1641,-7.1806,-7.1808,-7.1811,-7.1915,-7.19,-7.2051,-7.1922,-7.1879,-7.1911,-7.1906,-7.2016,-7.203,-7.2068,-7.2237,-7.2243,-7.2109,-7.2115,-7.212,-7.2123,0,0,0,0,0,0,0,-7.1611,-7.1635,-7.1866,-7.1809,-7.1811,-7.1801,-7.1817,-7.1929,-7.1971,-7.1882,-7.188,-7.1898,-7.2017,-7.2058,-7.2071,-7.2245,-7.2109,-7.2118,-7.2124,-7.2128,-7.255,-7.2555,0,0,0,0,0,0,-7.16,-7.1626,-7.1861,-7.187,-7.1703,-7.1811,-7.1828,-7.1886,-7.197,-7.1978,-7.1902,-7.1896,-7.2043,-7.2059,-7.2076,-7.2262,-7.212,-7.2129,-7.2135,-7.2545,-7.2551,-7.2556,0,0,0,0,0,0,-7.1593,-7.1621,-7.1855,-7.1748,-7.1777,-7.1821,-7.1886,-7.1891,-7.1932,-7.1984,-7.1991,-7.1936,-7.204,-7.2062,-7.2193,-7.2267,-7.2134,-7.2143,-7.2539,-7.2547,-7.2554,-7.2634,0,0,0,0,0,0,-7.1584,-7.1619,-7.1678,-7.175,-7.1783,-7.197,-7.1891,-7.1897,-7.195,-7.1944,-7.2018,-7.2026,-7.2038,-7.2178,-7.2203,-7.2278,-7.2151,-7.2532,-7.2542,-7.2551,-7.2625,-7.2643,-7.2659,0,0,0,0,0,-7.1573,-7.1693,-7.1681,-7.1709,-7.1857,-7.1974,-7.1993,-7.2004,-7.1956,-7.2016,-7.205,-7.2024,-7.2254,-7.2191,-7.2219,-7.2299,-7.2528,-7.2539,-7.2551,-7.2617,-7.264,-7.2659,0,0,0,0,0,0,-7.1627,-7.1703,-7.169,-7.1837,-7.19,-7.1967,-7.2042,-7.2028,-7.2104,-7.2095,-7.2105,-7.2122,-7.2257,-7.2291,-7.2219,-7.2452,-7.2384,-7.2402,-7.2425,-7.2447,-7.2464,-7.2453,-7.2159,0,0,0,0,0,-7.1657,-7.1746,-7.1807,-7.1931,-7.1963,-7.1998,-7.2049,-7.2052,-7.2117,-7.2143,-7.2186,-7.225,-7.2337,-7.2394,-7.2476,-7.263,-7.2646,-7.2698,-7.2716,-7.2729,-7.2745,-7.283,-7.2855,-7.2594,-7.2594,-7.2594,0,0,-7.1718,-7.177,-7.1825,-7.1943,-7.1992,-7.2084,-7.202,-7.2119,-7.2188,-7.2158,-7.2285,-7.2319,-7.2391,-7.2534,-7.26,-7.2567,-7.282,-7.2744,-7.2755,-7.2762,-7.2844,-7.2869,-7.2891,-7.2602,-7.26,-7.2599,0,0,-7.1877,-7.1925,-7.2035,-7.2086,-7.2161,-7.2184,-7.221,-7.2281,-7.2303,-7.2431,-7.2411,-7.2492,-7.2641,-7.2694,-7.274,-7.2921,-7.2901,-7.2948,-7.3038,-7.3121,-7.3141,-7.316,-7.3226,-7.3249,-7.2963,-7.2963,-7.2963,0,-7.1943,-7.2082,-7.2093,-7.2196,-7.2248,-7.2227,-7.2338,-7.2387,-7.2485,-7.2522,-7.2484,-7.2673,-7.2719,-7.2876,-7.292,-7.2958,-7.2989,-7.2939,-7.3138,-7.3156,-7.3173,-7.3237,-7.3261,-7.2968,-7.2968,-7.2967,-7.2967,0,-7.2161,-7.2257,-7.2337,-7.2434,-7.2496,-7.2602,-7.263,-7.2691,-7.269,-7.2716,-7.2847,-7.2903,-7.2997,-7.3035,-7.3033,-7.3192,-7.3169,-7.3135,-7.3066,-7.3203,-7.3263,-7.3287,-7.2976,-7.2974,-7.2972,-7.2971,0,0,-7.2357,-7.2461,-7.249,-7.2535,-7.2618,-7.2692,-7.2798,-7.2892,-7.2945,-7.3014,-7.3104,-7.3231,-7.3201,-7.3253,-7.3258,-7.3331,-7.3474,-7.3288,-7.329,-7.3321,-7.3653,-7.368,-7.3707,-7.3461,-7.3466,-7.3469,-7.3648,0,-7.2524,-7.2712,-7.2726,-7.2895,-7.2985,-7.2967,-7.306,-7.3121,-7.3149,-7.3229,-7.326,-7.3351,-7.3303,-7.3335,-7.3406,-7.3441,-7.3541,-7.3428,-7.3545,-7.3549,-7.3528,-7.3738,-7.3766,-7.3932,-7.3671,-7.3675,-7.3678,0,-7.2744,-7.2822,-7.3001,-7.3073,-7.3111,-7.3194,-7.3282,-7.3359,-7.3428,-7.3444,-7.3504,-7.3499,-7.3609,-7.3537,-7.3688,-7.3612,-7.366,-7.3685,-7.3692,-7.3703,-7.3622,-7.3757,-7.3984,-7.401,-7.3714,-7.3711,-7.3709,0,-7.2871,-7.302,-7.3147,-7.3186,-7.3273,-7.3332,-7.3371,-7.3436,-7.3492,-7.3569,-7.3605,-7.3693,-7.3742,-7.381,-7.383,-7.3775,-7.3982,-7.391,-7.3998,-7.3998,-7.4042,-7.4039,-7.4282,-7.4072,-7.4072,-7.4071,-7.4071,0,-7.3057,-7.3168,-7.3206,-7.3284,-7.3408,-7.3422,-7.3544,-7.3579,-7.3638,-7.3723,-7.3712,-7.3792,-7.3812,-7.3896,-7.3912,-7.4036,-7.4057,-7.4073,-7.4076,-7.4075,-7.4073,-7.4107,-7.4097,-7.4078,-7.4077,-7.4075,-7.4074,0,-7.322,-7.325,-7.3387,-7.3459,-7.348,-7.3568,-7.3629,-7.3705,-7.3732,-7.384,-7.3866,-7.3908,-7.4007,-7.4033,-7.415,-7.4161,-7.4307,-7.4299,-7.4285,-7.4285,-7.4371,-7.4363,-7.4645,-7.4683,-7.4447,-7.4449,-7.4451,0,-7.3337,-7.3422,-7.3504,-7.356,-7.3602,-7.3693,-7.3751,-7.3769,-7.383,-7.3917,-7.3982,-7.4079,-7.4158,-7.4316,-7.4357,-7.4447,-7.4442,-7.4534,-7.4455,-7.4452,-7.4445,-7.444,-7.4449,-7.4549,-7.4552,-7.4554,-7.4555,0,-7.3542,-7.3553,-7.3637,-7.3728,-7.3798,-7.3869,-7.3938,-7.3985,-7.4013,-7.4082,-7.4183,-7.4244,-7.4365,-7.4462,-7.4554,-7.4593,-7.458,-7.458,-7.4606,-7.4605,-7.4594,-7.4603,-7.4327,-7.4574,-7.4572,-7.4571,-7.457,-7.4569,-7.3687,-7.3762,-7.3832,-7.3927,-7.3981,-7.4046,-7.4121,-7.4158,-7.4243,-7.4344,-7.4349,-7.446,-7.4528,-7.465,-7.4695,-7.4781,-7.4754,-7.479,-7.4799,-7.4808,-7.4816,-7.458,-7.4798,-7.4797,-7.4797,-7.4796,-7.4796,0,-7.3892,-7.3937,-7.4024,-7.4121,-7.4196,-7.4178,-7.4254,-7.4317,-7.4415,-7.448,-7.4559,-7.4676,-7.4771,-7.482,-7.4914,-7.4974,-7.4971,-7.4998,-7.4995,-7.5004,-7.4835,-7.4804,-7.5,-7.5,-7.5,-7.5,-7.5,-7.5,-7.4008,-7.4136,-7.4155,-7.431,-7.4353,-7.4462,-7.4507,-7.4567,-7.462,-7.4752,-7.4831,-7.4863,-7.4922,-7.5021,-7.5107,-7.512,-7.5155,-7.5187,-7.5196,-7.5037,-7.5016,-7.4996,-7.4967,-7.5194,-7.5194,-7.5358,-7.536,-7.5361]}]]